Regional Weather Roundup
Issued by NWS Kansas City/Pleasant Hill, MO

Home | Current Version | Previous Version | Graphics & Text | Print | Product List | Glossary Off
Versions: 1 2 3 4 5 6 7 8 9 10 11 12 13 14 15 16 17 18 19 20 21 22 23 24 25 26 27 28 29 30 31 32 33 34 35 36 37 38 39 40 41 42 43 44 45 46 47 48 49 50

000
ASUS43 KEAX 202110
RWREAX

WEATHER ROUNDUP FOR EASTERN KANSAS AND NORTHWEST MISSOURI
NATIONAL WEATHER SERVICE KANSAS CITY/PLEASANT HILL MO
400 PM CDT SUN APR 20 2014

KSZ040-057-103>105-MOZ028-029-037-043-202200-
...KANSAS CITY METROPOLITAN AREA...

CITY           SKY/WX    TMP DP  RH WIND       PRES   REMARKS
K.C. INTL      CLOUDY    74  52  46 S14       30.03F
K.C. DOWNTOWN  CLOUDY    77  53  43 S13       30.03F
LEES SUMMIT    PTSUNNY   75  51  43 SW9       30.05F
OLATHE - IXD   CLOUDY    76  53  44 S12       30.04F
OLATHE - OJC   PTSUNNY   75  52  44 SW12      30.03F
LAWRENCE       CLOUDY    77  54  44 S10G21    30.02F

$$

MOZ001>008-011>017-020>025-030>033-038>040-044>046-053-054-202200-
...NORTHERN AND CENTRAL MISSOURI...

CITY           SKY/WX    TMP DP  RH WIND       PRES   REMARKS
ST. JOSEPH     PTSUNNY   78  53  41 S13G23    30.00F
MOSBY          FAIR      77  52  41 S10G16    30.03F
WHITEMAN AFB   PTSUNNY   77  52  41 SW18      30.06F
CLINTON        CLOUDY    75  54  46 SW10      30.08F
SEDALIA        PTSUNNY   79  50  36 SW14G23   30.07F
WARSAW         NOT AVBL
MARSHALL         N/A     81  52  36 S14G20    30.06F
CHILLICOTHE      N/A     78  50  37 S13G22    30.03F
MOBERLY        MOSUNNY   81  45  28 SW10      30.07F
KIRKSVILLE     MOSUNNY   81  49  32 SW13G20   30.05F

$$

MOZ041-047>049-056>058-063>065-088>090-097-202200-
...EASTERN AND SOUTHERN MISSOURI...

CITY           SKY/WX    TMP DP  RH WIND       PRES   REMARKS
ST. LOUIS INTL PTSUNNY   82  38  20 S8G18     30.08F
SPIRIT OF STL  MOSUNNY   81  38  21 S6        30.06F
COLUMBIA       PTSUNNY   78  50  37 SW7       30.06F
JEFFERSON CITY MOSUNNY   80  47  31 SW10G20   30.05F
MEXICO         MOSUNNY   79  50  36 S6G17     30.06F
HANNIBAL       MOSUNNY   82  37  20 S12G21    30.05F
ROLLA          MOSUNNY   79  48  33 S12G22    30.07F
LEBANON        PTSUNNY   79  45  29 SW7       30.10F
OSAGE BEACH    CLOUDY    79  46  31 S12G17    30.09F
SPRINGFIELD    CLOUDY    74  50  42 SW7       30.09F
BRANSON        PTSUNNY   77  50  38 SW8       30.11F
NEVADA         LGT RAIN  73  52  46 S14       30.08F
JOPLIN         CLOUDY    73  53  49 SW7       30.09F
WEST PLAINS    MOSUNNY   75  47  36 S6        30.12F

$$

IAZ060-094-KSZ022-034>040-054-083-096-NEZ052-066-093-202200-
...KANSAS...SOUTHEAST NEBRASKA AND IOWA...

CITY           SKY/WX    TMP DP  RH WIND       PRES   REMARKS
TOPEKA         CLOUDY    77  54  44 S14G21    30.01F
MANHATTAN      CLOUDY    75  55  49 SW15      30.00S
EMPORIA        LGT RAIN  65  59  81 S15       30.05R
CHANUTE        CLOUDY    72  54  53 S14       30.07F
WICHITA        LGT RAIN  67  59  75 SE9       30.03F
OMAHA          CLOUDY    83  49  30 VRB5      29.91F
LINCOLN        CLOUDY    78  52  40 SW29      29.94F THUNDER
FALLS CITY     PTSUNNY   81  54  39 S15G28    29.95F
LAMONI         PTSUNNY   77  52  41 S13       30.00F
DES MOINES     PTSUNNY   82  52  35 SW15G25   29.96F

$$




USA.gov is the U.S. government's official web portal to all federal, state and local government web resources and services.